STARLINK-5745, 55575

Orbit data source: Space-Track

STARLINK-5745, 55575 is a payload satellite owned by SpaceX/Seattle (US) in LEO that was launched on Sun, 12 Feb 2023 UTC via an FALCON 9 launch vehicle from the Air Force Eastern Test Range (AFETR). Payload-class satellites include a variety of spacecraft equipped with specific instruments for various scientific and technological missions. These include communications satellites like Starlink; space stations such as the ISS; scientific satellites like the Hubble; Earth observation satellites from companies like Planet Labs, Umbra, and HawkEye 360; GPS; miniature CubeSats for education and research; and military/defense satellites.

Loading next visibility...
Identifier
55575, 2023-020G
Orbit
LEO
Country
Flag of USUS
Related business
Manufacturer
SpaceX/Seattle
Mission
Operational Commercial Communications
Bus & Motor
STARLINK, Unknown motor
Mass
305 kg wet, ~290 kg dry
Launch date (UTC)
2023-02-12 (3 years ago)
Launch vehicle
FALCON 9
Launch site
Air Force Eastern Test Range (AFETR)
Object type
Payload
Rocket body
Debris
Shape & HBR
Box + 1 Pan, 10.1 m
Radar Cross Section
13.562 m², Large (>1 m²)

Expand to show TLE details & history
Last TLE update: 19 hours ago

TLE from 19 hours ago
0 STARLINK-5745
1 55575U 23020G   26062.02134596  .00000709  00000-0  67577-4 0  9992
2 55575  43.0034  41.0920 0001141 267.1661  92.9051 15.02535820167916
Epoch: 2026-03-03T00:30Z
TLE epoch observation values (Epoch: 2026-03-03T00:30:44.290Z)
Latitude
-0.00002°
Longitude
-127.39895°
Altitude
558.899 km
Speed
7.584 km/s
True Right ascension
02h 44m 22s
True Declination
0° 00' 00"
Sunlit
Object was in daylight at epoch
Visualization orbit readout
Latitude
Unknown
Longitude
Unknown
Altitude
Unknown
Speed
Unknown
Apparent Right ascension
Unknown
Apparent Declination
Unknown
Sunlit
N/A
Visualization observer readout
Local Sidereal Time
22:53:41
Azimuth
Unknown
Elevation
Unknown
Doppler factor
Unknown
Orbital elements
Apogee altitude
561.795 km
Perigee altitude
560.212 km
Semi-major axis
6,939.14 km
Eccentricity
0.00011
Inclination
43.0034°
RAAN
41.092°
Arg. of periapsis
267.1661°
True anomaly
92.91816°
Mean anomaly
92.9051°
Eccentric anomaly
92.91163°
Mean motion
3.75478 °/min
Orbital period
95.88 mins
BSTAR
0.000067577
Loading maneuver chart data...
Computing Atmospheric mass density...
Loading historical data...
Loading historical data...
Loading historical data...
Loading historical data...
Loading historical data...
Loading historical data...
Loading historical data...

Documentation

Showing up to 5 results
|